Flag for Germany Weather past 2 weeks in Wiehl, North Rhine-Westphalia, Germany

Now
63 °F

Clear.


Feels Like: 63 °F
Forecast: 49 / 80 °F
Wind: 2 mph from North

Location: Koeln / Bonn

Current Time: Aug 1, 2015 at 11:00:22 PM

Latest Report: Aug 1, 2015 at 10:20 PM


Visibility: 10 mi

Pressure: 30.04 "Hg

Humidity: 64%

Dew point: 50 °F

Location of WiehlLocation

Historic Weather in Wiehl — Graph

°F

Wiehl temperature yesterday

Maximum temperature yesterday: 68 °F (at 4:50 PM)
Minimum temperature yesterday: 48 °F (at 3:20 AM)
Average temperature yesterday: 58 °F

Past Weeks' High & Low Weather Summary

 TemperatureHumidityPressure
High82 °F (Jul 17, 9:20 PM)100% (Jul 31, 4:20 AM)30.15 "Hg (Jul 31, 4:20 AM)
Low48 °F (Jul 26, 3:50 AM)28% (Jul 18, 2:50 PM)29.56 "Hg (Jul 25, 6:50 AM)
Average64 °F69%29.90 "Hg
* Reported Jul 17 9:20 PM — Aug 1 9:50 PM, Wiehl, Weather by CustomWeather, © 2015

Note: Actual official high and low records may vary slightly from our data, if they occured in-between our weather recording intervals... More about our weather records

Advertising

Wiehl weather history for previous 24 hours

 ConditionsComfort  
Time TempWeatherWind HumidityBarometerVisibility
9:50 PM
Sat, Aug 1
66 °FSunny.2 mph52%30.01 "Hg10 mi
9:20 PM68 °FSunny.5 mph49%30.01 "Hg10 mi
8:50 PM70 °FSunny.7 mph43%30.01 "Hg10 mi
8:20 PM73 °FSunny.9 mph36%29.98 "Hg10 mi
7:50 PM75 °FSunny.9 mph34%29.98 "Hg10 mi
7:20 PM75 °FSunny.9 mph34%29.98 "Hg10 mi
6:50 PM77 °FSunny.9 mph30%29.98 "Hg10 mi
6:20 PM77 °FSunny.9 mph30%29.95 "Hg10 mi
5:50 PM77 °FSunny.9 mph30%29.95 "Hg10 mi
5:20 PM79 °FSunny.13 mph28%29.95 "Hg10 mi
4:50 PM79 °FPassing clouds.6 mph30%29.95 "HgN/A
4:20 PM77 °FPassing clouds.6 mph34%29.95 "HgN/A
3:50 PM77 °FPassing clouds.7 mph32%29.95 "HgN/A
3:20 PM77 °FPassing clouds.6 mph36%29.95 "HgN/A
2:50 PM77 °FPassing clouds.5 mph34%29.95 "HgN/A
2:20 PM77 °FSunny.3 mph34%29.95 "Hg10 mi
1:50 PM75 °FSunny.5 mph34%29.95 "Hg10 mi
1:20 PM73 °FPassing clouds.5 mph36%29.98 "HgN/A
12:50 PM73 °FSunny.2 mph41%29.98 "Hg10 mi
12:20 PM72 °FSunny.3 mph44%29.98 "Hg10 mi
11:50 AM70 °FSunny.1 mph40%29.98 "Hg10 mi
11:20 AM68 °FSunny.3 mph46%29.98 "Hg10 mi
10:50 AM68 °FPassing clouds.5 mph46%29.98 "HgN/A
10:20 AM66 °FSunny.2 mph49%29.98 "Hg10 mi
9:50 AM64 °FPassing clouds.5 mph52%29.98 "HgN/A
9:20 AM63 °FPassing clouds.5 mph56%29.98 "HgN/A
8:50 AM59 °FSunny.3 mph59%29.98 "Hg10 mi
8:20 AM57 °FSunny.2 mph67%29.98 "Hg10 mi
7:50 AM52 °FSunny.2 mph88%29.98 "Hg10 mi
7:20 AM52 °FSunny.3 mph82%29.98 "Hg10 mi
6:50 AM50 °FClear.3 mph88%29.98 "Hg10 mi
6:20 AM52 °FClear.2 mph82%29.98 "Hg10 mi
5:50 AM50 °FClear.2 mph88%29.98 "Hg10 mi
5:20 AM50 °FClear.1 mph88%29.98 "Hg10 mi
4:50 AM50 °FClear.2 mph82%29.98 "Hg10 mi
4:20 AM52 °FClear.1 mph77%29.98 "Hg10 mi
3:50 AM50 °FClear.1 mph82%29.98 "Hg10 mi
3:20 AM52 °FClear.1 mph77%30.01 "Hg10 mi
2:50 AM52 °FClear.2 mph77%30.01 "Hg10 mi
2:20 AM52 °FClear.2 mph77%30.01 "Hg10 mi
1:50 AM52 °FClear.2 mph77%30.01 "Hg10 mi
1:20 AM54 °FClear.2 mph72%30.01 "Hg10 mi
12:50 AM57 °FClear.5 mph59%30.01 "Hg10 mi
12:20 AM57 °FClear.9 mph59%30.01 "Hg10 mi
11:50 PM
Fri, Jul 31
55 °FClear.8 mph63%30.01 "Hg10 mi
11:20 PM55 °FClear.7 mph67%30.01 "Hg10 mi
Weather by CustomWeather, © 2015

See weather overviewHow to use our weather pages